DAL2253 KLAS-KLAX

Flight info

Callsign DAL2253
Flight time 0h 43m
Altitude 28000
Route RADYR2 BLAQQ SHTNR ANJLL4
Aircraft A321/M-SDE3FGHIRWY/LB1

Departure

Time 2026-05-03 22:32
Airport Harry Reid International Airport (KLAS)

Arrival

Time 2026-05-03 23:16
Airport Los Angeles International Airport (KLAX)
Time Latitude Longitude Altitude Speed Heading
2026-05-03 22:10 36.07979 -115.13960 2115 ft 0 kts 351°
2026-05-03 22:23 36.07973 -115.13959 2115 ft 4 kts 352°
2026-05-03 22:23 36.07947 -115.13952 2118 ft 4 kts 339°
2026-05-03 22:23 36.07926 -115.13936 2118 ft 4 kts 301°
2026-05-03 22:24 36.07920 -115.13907 2120 ft 4 kts 251°
2026-05-03 22:24 36.07923 -115.13899 2119 ft 0 kts 243°
2026-05-03 22:27 36.07916 -115.13911 2119 ft 5 kts 234°
2026-05-03 22:27 36.07894 -115.13979 2119 ft 13 kts 269°
2026-05-03 22:27 36.07900 -115.14121 2117 ft 16 kts 252°
2026-05-03 22:27 36.07808 -115.14165 2118 ft 14 kts 181°
2026-05-03 22:28 36.07753 -115.14107 2120 ft 9 kts 96°
2026-05-03 22:28 36.07753 -115.14037 2121 ft 7 kts 89°
2026-05-03 22:28 36.07754 -115.13985 2123 ft 6 kts 89°
2026-05-03 22:28 36.07754 -115.13908 2124 ft 13 kts 91°
2026-05-03 22:29 36.07752 -115.13766 2125 ft 21 kts 90°
2026-05-03 22:29 36.07751 -115.13557 2126 ft 26 kts 90°
2026-05-03 22:29 36.07753 -115.13343 2126 ft 24 kts 89°
2026-05-03 22:29 36.07753 -115.13133 2123 ft 25 kts 89°
2026-05-03 22:30 36.07755 -115.12925 2122 ft 24 kts 89°
2026-05-03 22:30 36.07758 -115.12721 2121 ft 24 kts 89°
2026-05-03 22:30 36.07753 -115.12520 2119 ft 22 kts 90°
2026-05-03 22:30 36.07756 -115.12341 2121 ft 19 kts 90°
2026-05-03 22:31 36.07757 -115.12178 2121 ft 17 kts 94°
2026-05-03 22:31 36.07698 -115.12128 2124 ft 8 kts 167°
2026-05-03 22:31 36.07647 -115.12162 2125 ft 11 kts 247°
2026-05-03 22:31 36.07642 -115.12292 2123 ft 27 kts 270°
2026-05-03 22:32 36.07639 -115.12879 2124 ft 106 kts 270°
2026-05-03 22:32 36.07638 -115.14060 2124 ft 166 kts 270°
2026-05-03 22:32 36.07660 -115.15636 2434 ft 189 kts 268°
2026-05-03 22:32 36.07653 -115.17250 3209 ft 189 kts 265°
2026-05-03 22:33 36.07645 -115.18935 3559 ft 206 kts 266°
2026-05-03 22:33 36.07575 -115.20836 3523 ft 232 kts 262°
2026-05-03 22:33 36.07270 -115.22828 3869 ft 241 kts 254°
2026-05-03 22:33 36.06800 -115.24852 4199 ft 252 kts 245°
2026-05-03 22:34 36.05821 -115.26689 4494 ft 262 kts 220°
2026-05-03 22:34 36.04270 -115.27937 4894 ft 269 kts 202°
2026-05-03 22:34 36.02503 -115.28702 5567 ft 269 kts 194°
2026-05-03 22:34 36.00695 -115.29244 6322 ft 265 kts 192°
2026-05-03 22:35 35.98927 -115.29823 7112 ft 261 kts 193°
2026-05-03 22:35 35.97127 -115.30289 7668 ft 266 kts 189°
2026-05-03 22:35 35.95290 -115.30653 8284 ft 268 kts 188°
2026-05-03 22:35 35.93434 -115.31003 8851 ft 272 kts 188°
2026-05-03 22:36 35.91583 -115.31368 9397 ft 274 kts 189°
2026-05-03 22:36 35.89695 -115.31773 9982 ft 276 kts 189°
2026-05-03 22:36 35.87770 -115.32217 10322 ft 291 kts 189°
2026-05-03 22:36 35.85721 -115.32708 10455 ft 310 kts 190°
2026-05-03 22:37 35.83546 -115.33240 10659 ft 325 kts 191°
2026-05-03 22:37 35.81298 -115.33794 11153 ft 333 kts 191°
2026-05-03 22:37 35.79017 -115.34359 11772 ft 335 kts 191°
2026-05-03 22:37 35.76726 -115.34923 12417 ft 337 kts 191°
2026-05-03 22:38 35.74415 -115.35487 13079 ft 339 kts 191°
2026-05-03 22:38 35.72091 -115.36052 13722 ft 342 kts 191°
2026-05-03 22:38 35.69748 -115.36623 14331 ft 345 kts 191°
2026-05-03 22:38 35.67382 -115.37201 14930 ft 348 kts 191°
2026-05-03 22:39 35.65007 -115.37782 15530 ft 349 kts 191°
2026-05-03 22:39 35.62613 -115.38365 16081 ft 352 kts 191°
2026-05-03 22:39 35.60173 -115.38705 16610 ft 356 kts 182°
2026-05-03 22:39 35.57683 -115.38563 17166 ft 359 kts 178°
2026-05-03 22:40 35.55182 -115.38378 17703 ft 361 kts 179°
2026-05-03 22:40 35.52663 -115.38194 18225 ft 364 kts 179°
2026-05-03 22:40 35.50125 -115.38010 18728 ft 366 kts 179°
2026-05-03 22:40 35.47574 -115.37824 19213 ft 369 kts 180°
2026-05-03 22:41 35.45017 -115.37963 19667 ft 368 kts 191°
2026-05-03 22:41 35.42540 -115.38738 20114 ft 368 kts 202°
2026-05-03 22:41 35.40228 -115.40077 20582 ft 368 kts 209°
2026-05-03 22:41 35.37956 -115.41545 21070 ft 370 kts 209°
2026-05-03 22:42 35.35677 -115.43006 21552 ft 371 kts 209°
2026-05-03 22:42 35.33382 -115.44472 21997 ft 373 kts 209°
2026-05-03 22:42 35.31106 -115.45921 22428 ft 374 kts 209°
2026-05-03 22:42 35.28765 -115.47408 22870 ft 375 kts 209°
2026-05-03 22:43 35.26477 -115.48861 23282 ft 377 kts 210°
2026-05-03 22:43 35.24145 -115.50345 23700 ft 378 kts 210°
2026-05-03 22:43 35.21808 -115.51833 24106 ft 380 kts 210°
2026-05-03 22:43 35.19461 -115.53327 24536 ft 380 kts 211°
2026-05-03 22:44 35.17111 -115.54824 24930 ft 381 kts 211°
2026-05-03 22:44 35.14757 -115.56326 25312 ft 383 kts 211°
2026-05-03 22:44 35.12509 -115.58037 25687 ft 379 kts 220°
2026-05-03 22:44 35.10574 -115.60203 26052 ft 377 kts 228°
2026-05-03 22:45 35.08765 -115.62534 26444 ft 378 kts 229°
2026-05-03 22:45 35.06952 -115.64861 26815 ft 379 kts 229°
2026-05-03 22:45 35.05127 -115.67196 27175 ft 381 kts 229°
2026-05-03 22:45 35.03303 -115.69523 27537 ft 379 kts 229°
2026-05-03 22:46 35.01473 -115.71851 27784 ft 380 kts 229°
2026-05-03 22:46 34.99662 -115.74150 27841 ft 370 kts 230°
2026-05-03 22:46 34.97891 -115.76397 27847 ft 366 kts 229°
2026-05-03 22:46 34.96132 -115.78633 27849 ft 364 kts 229°
2026-05-03 22:47 34.94383 -115.80859 27848 ft 363 kts 229°
2026-05-03 22:47 34.92637 -115.83080 27848 ft 363 kts 230°
2026-05-03 22:47 34.90891 -115.85299 27849 ft 363 kts 229°
2026-05-03 22:47 34.89142 -115.87519 27850 ft 363 kts 229°
2026-05-03 22:48 34.87397 -115.89735 27849 ft 363 kts 230°
2026-05-03 22:48 34.85652 -115.91953 27854 ft 363 kts 229°
2026-05-03 22:48 34.83910 -115.94169 27853 ft 362 kts 230°
2026-05-03 22:48 34.82167 -115.96386 27852 ft 362 kts 230°
2026-05-03 22:49 34.80424 -115.98599 27854 ft 362 kts 229°
2026-05-03 22:49 34.78678 -116.00810 27858 ft 363 kts 230°
2026-05-03 22:49 34.76930 -116.03021 27858 ft 362 kts 230°
2026-05-03 22:49 34.75186 -116.05234 27867 ft 362 kts 230°
2026-05-03 22:50 34.73453 -116.07442 27883 ft 361 kts 230°
2026-05-03 22:50 34.71721 -116.09649 27879 ft 360 kts 230°
2026-05-03 22:50 34.69993 -116.11852 27871 ft 359 kts 230°
2026-05-03 22:50 34.68264 -116.14052 27870 ft 360 kts 230°
2026-05-03 22:51 34.66533 -116.16250 27869 ft 359 kts 230°
2026-05-03 22:51 34.64804 -116.18447 27866 ft 360 kts 230°
2026-05-03 22:51 34.63074 -116.20646 27868 ft 359 kts 230°
2026-05-03 22:51 34.61347 -116.22839 27873 ft 360 kts 230°
2026-05-03 22:52 34.59615 -116.25038 27874 ft 360 kts 230°
2026-05-03 22:52 34.57882 -116.27232 27878 ft 360 kts 230°
2026-05-03 22:52 34.56148 -116.29425 27882 ft 360 kts 230°
2026-05-03 22:52 34.54413 -116.31620 27887 ft 361 kts 230°
2026-05-03 22:53 34.52675 -116.33822 27914 ft 361 kts 230°
2026-05-03 22:53 34.50943 -116.36019 27924 ft 361 kts 230°
2026-05-03 22:53 34.49206 -116.38215 27918 ft 361 kts 230°
2026-05-03 22:53 34.47485 -116.40386 27923 ft 362 kts 230°
2026-05-03 22:54 34.45746 -116.42580 27915 ft 361 kts 230°
2026-05-03 22:54 34.44007 -116.44770 27919 ft 361 kts 230°
2026-05-03 22:54 34.42302 -116.46993 27911 ft 359 kts 234°
2026-05-03 22:54 34.40934 -116.49506 27920 ft 357 kts 243°
2026-05-03 22:55 34.39829 -116.52197 27927 ft 356 kts 244°
2026-05-03 22:55 34.38737 -116.54866 27717 ft 349 kts 244°
2026-05-03 22:55 34.37670 -116.57460 27468 ft 340 kts 244°
2026-05-03 22:55 34.36622 -116.60006 27225 ft 337 kts 244°
2026-05-03 22:56 34.35577 -116.62541 26974 ft 336 kts 244°
2026-05-03 22:56 34.34536 -116.65068 26719 ft 335 kts 244°
2026-05-03 22:56 34.33849 -116.66734 26552 ft 334 kts 244°
2026-05-03 22:56 34.32816 -116.69256 26303 ft 334 kts 244°
2026-05-03 22:57 34.31799 -116.71772 26045 ft 333 kts 244°
2026-05-03 22:57 34.30790 -116.74285 25801 ft 332 kts 244°
2026-05-03 22:57 34.29786 -116.76791 25557 ft 330 kts 244°
2026-05-03 22:57 34.28784 -116.79291 25296 ft 330 kts 244°
2026-05-03 22:58 34.27781 -116.81786 25045 ft 330 kts 244°
2026-05-03 22:58 34.26779 -116.84275 24797 ft 329 kts 244°
2026-05-03 22:58 34.25777 -116.86764 24542 ft 329 kts 244°
2026-05-03 22:58 34.24778 -116.89240 24287 ft 328 kts 244°
2026-05-03 22:59 34.23775 -116.91716 24042 ft 327 kts 243°
2026-05-03 22:59 34.22777 -116.94176 23786 ft 325 kts 244°
2026-05-03 22:59 34.21787 -116.96624 23486 ft 321 kts 244°
2026-05-03 22:59 34.20900 -116.99076 23056 ft 318 kts 250°
2026-05-03 23:00 34.20220 -117.01611 22613 ft 316 kts 250°
2026-05-03 23:00 34.19537 -117.04147 22149 ft 318 kts 250°
2026-05-03 23:00 34.18854 -117.06673 21699 ft 316 kts 250°
2026-05-03 23:00 34.18171 -117.09188 21245 ft 314 kts 250°
2026-05-03 23:01 34.17494 -117.11685 20782 ft 312 kts 250°
2026-05-03 23:01 34.16820 -117.14173 20328 ft 311 kts 250°
2026-05-03 23:01 34.16144 -117.16656 19882 ft 311 kts 249°
2026-05-03 23:01 34.15464 -117.19131 19419 ft 311 kts 249°
2026-05-03 23:02 34.14783 -117.21603 18962 ft 309 kts 249°
2026-05-03 23:02 34.14107 -117.24061 18519 ft 308 kts 249°
2026-05-03 23:02 34.13435 -117.26510 18075 ft 306 kts 249°
2026-05-03 23:02 34.12766 -117.28941 17633 ft 305 kts 248°
2026-05-03 23:03 34.12098 -117.31361 17205 ft 303 kts 248°
2026-05-03 23:03 34.11438 -117.33744 16766 ft 292 kts 248°
2026-05-03 23:03 34.10811 -117.36016 16384 ft 285 kts 248°
2026-05-03 23:03 34.10183 -117.38307 15978 ft 289 kts 249°
2026-05-03 23:04 34.09587 -117.40623 15575 ft 289 kts 249°
2026-05-03 23:04 34.09010 -117.42944 15165 ft 289 kts 249°
2026-05-03 23:04 34.08438 -117.45271 14764 ft 291 kts 250°
2026-05-03 23:04 34.07861 -117.47612 14346 ft 291 kts 249°
2026-05-03 23:05 34.07300 -117.49950 13943 ft 291 kts 253°
2026-05-03 23:05 34.06934 -117.52365 13506 ft 304 kts 256°
2026-05-03 23:05 34.06557 -117.54936 13022 ft 310 kts 255°
2026-05-03 23:05 34.06183 -117.57505 12548 ft 311 kts 255°
2026-05-03 23:06 34.05807 -117.60078 12071 ft 312 kts 255°
2026-05-03 23:06 34.05432 -117.62655 11597 ft 312 kts 256°
2026-05-03 23:06 34.05058 -117.65208 11131 ft 313 kts 256°
2026-05-03 23:06 34.04679 -117.67793 10643 ft 313 kts 257°
2026-05-03 23:07 34.04297 -117.70377 10194 ft 313 kts 257°
2026-05-03 23:07 34.03922 -117.72913 10052 ft 302 kts 257°
2026-05-03 23:07 34.03561 -117.75366 9886 ft 293 kts 257°
2026-05-03 23:07 34.03204 -117.77754 9630 ft 288 kts 257°
2026-05-03 23:08 34.02846 -117.80131 9194 ft 289 kts 257°
2026-05-03 23:08 34.02486 -117.82523 8724 ft 290 kts 258°
2026-05-03 23:08 34.02128 -117.84910 8368 ft 288 kts 258°
2026-05-03 23:08 34.01772 -117.87284 8007 ft 285 kts 258°
2026-05-03 23:09 34.01433 -117.89566 7707 ft 270 kts 258°
2026-05-03 23:09 34.01105 -117.91767 7104 ft 264 kts 258°
2026-05-03 23:09 34.00782 -117.93931 6516 ft 261 kts 258°
2026-05-03 23:09 34.00460 -117.96080 6062 ft 260 kts 258°
2026-05-03 23:10 34.00134 -117.98238 5638 ft 263 kts 258°
2026-05-03 23:10 33.99806 -118.00410 5273 ft 261 kts 258°
2026-05-03 23:10 33.99483 -118.02544 5027 ft 255 kts 258°
2026-05-03 23:10 33.99062 -118.04624 4939 ft 256 kts 249°
2026-05-03 23:11 33.98593 -118.06696 4833 ft 257 kts 258°
2026-05-03 23:11 33.98349 -118.08827 4718 ft 257 kts 262°
2026-05-03 23:11 33.98152 -118.10964 4607 ft 257 kts 262°
2026-05-03 23:11 33.97945 -118.13094 4460 ft 256 kts 262°
2026-05-03 23:12 33.97734 -118.15219 4161 ft 254 kts 262°
2026-05-03 23:12 33.97522 -118.17323 3834 ft 252 kts 262°
2026-05-03 23:12 33.97312 -118.19416 3505 ft 250 kts 262°
2026-05-03 23:12 33.97109 -118.21438 3188 ft 237 kts 261°
2026-05-03 23:13 33.96912 -118.23391 2879 ft 233 kts 261°
2026-05-03 23:13 33.96721 -118.25295 2556 ft 224 kts 262°
2026-05-03 23:13 33.96539 -118.27102 2266 ft 211 kts 262°
2026-05-03 23:13 33.96365 -118.28827 2001 ft 205 kts 262°
2026-05-03 23:14 33.96194 -118.30512 1732 ft 202 kts 263°
2026-05-03 23:14 33.96025 -118.32167 1477 ft 194 kts 263°
2026-05-03 23:14 33.95867 -118.33739 1224 ft 185 kts 263°
2026-05-03 23:14 33.95715 -118.35223 968 ft 172 kts 262°
2026-05-03 23:15 33.95572 -118.36589 793 ft 158 kts 263°
2026-05-03 23:15 33.95469 -118.37882 526 ft 150 kts 265°
2026-05-03 23:15 33.95331 -118.39086 347 ft 144 kts 260°
2026-05-03 23:15 33.95204 -118.40263 207 ft 140 kts 264°
2026-05-03 23:16 33.95093 -118.41371 123 ft 124 kts 263°
2026-05-03 23:16 33.95019 -118.42112 122 ft 46 kts 262°
2026-05-03 23:16 33.94985 -118.42355 126 ft 28 kts 260°
2026-05-03 23:16 33.94928 -118.42557 125 ft 19 kts 244°
2026-05-03 23:17 33.94875 -118.42644 122 ft 10 kts 234°
2026-05-03 23:17 33.94837 -118.42698 122 ft 6 kts 225°
2026-05-03 23:17 33.94794 -118.42737 124 ft 12 kts 215°
2026-05-03 23:17 33.94691 -118.42781 124 ft 16 kts 181°
2026-05-03 23:18 33.94638 -118.42678 124 ft 15 kts 84°
2026-05-03 23:18 33.94654 -118.42526 126 ft 22 kts 81°
2026-05-03 23:18 33.94680 -118.42313 123 ft 30 kts 84°
2026-05-03 23:18 33.94697 -118.42057 126 ft 20 kts 82°
2026-05-03 23:19 33.94722 -118.41912 124 ft 17 kts 79°
2026-05-03 23:19 33.94736 -118.41772 126 ft 16 kts 84°
2026-05-03 23:19 33.94748 -118.41640 121 ft 15 kts 84°
2026-05-03 23:19 33.94759 -118.41517 126 ft 14 kts 84°
2026-05-03 23:20 33.94772 -118.41401 126 ft 14 kts 78°
2026-05-03 23:20 33.94797 -118.41287 126 ft 16 kts 80°
2026-05-03 23:20 33.94814 -118.41140 123 ft 18 kts 82°
2026-05-03 23:20 33.94829 -118.40992 124 ft 17 kts 83°
2026-05-03 23:21 33.94772 -118.40896 120 ft 13 kts 146°
2026-05-03 23:21 33.94740 -118.40868 126 ft 3 kts 139°
2026-05-03 23:21 33.94729 -118.40856 122 ft 2 kts 139°
2026-05-03 23:21 33.94723 -118.40850 124 ft 1 kts 141°
2026-05-03 23:22 33.94712 -118.40839 123 ft 1 kts 141°
2026-05-03 23:22 33.94707 -118.40834 126 ft 0 kts 141°
2026-05-03 23:22 33.94705 -118.40833 126 ft 0 kts 141°